AirNav   Air Wisconsin pilot careers
 
 987 users online  

2H0 Shelby County Airport
Shelbyville, Illinois, USA

GOING TO SHELBYVILLE?


FAA INFORMATION EFFECTIVE 24 MAY 2018

Location

FAA Identifier: 2H0
Lat/Long: 39-24-38.1686N / 088-50-43.5286W
39-24.636143N / 088-50.725477W
39.4106024 / -88.8454246
(estimated)
Elevation: 618.9 ft. / 188.6 m (surveyed)
Variation: 02W (2010)
From city: 3 miles W of SHELBYVILLE, IL
Time zone: UTC -5 (UTC -6 during Standard Time)
Zip code: 62565

Airport Operations

Airport use: Open to the public
Activation date: 11/1947
Control tower: no
ARTCC: KANSAS CITY CENTER
FSS: SAINT LOUIS FLIGHT SERVICE STATION
NOTAMs facility: STL (NOTAM-D service available)
Attendance: 0800-DUSK
Pattern altitude: 1418.9 ft. MSL
Wind indicator: lighted
Segmented circle: no
Beacon: white-green (lighted land airport)
Operates sunset to sunrise.

Airport Communications

CTAF/UNICOM: 122.8
  • APCH/DEP SVC PRVDD BY KANSAS CITY ARTCC ON FREQS 124.3/269.15 (DECATUR RCAG).

Nearby radio navigation aids

VOR radial/distance  VOR name  Freq  Var
AXCr176/19.6ADDERS VORTAC117.2003E
VLAr034/24.0VANDALIA VORTAC114.3004E
MTOr258/26.2MATTOON VOR/DME109.4003E
BIBr327/33.9BIBLE GROVE VORTAC109.0003E

 
NDB name  Hdg/Dist  Freq  Var  ID
SHELBYVILLEat field36502WSYZ ... -.-- --..

Airport Services

Fuel available: 100LL
Parking: hangars and tiedowns
Airframe service: MAJOR
Powerplant service: MAJOR
Bottled oxygen: NONE
Bulk oxygen: NONE

Runway Information

Runway 18/36

Dimensions: 4098 x 75 ft. / 1249 x 23 m
Surface: asphalt/porous friction courses, in good condition
Weight bearing capacity: 
Single wheel: 4.0
Runway edge lights: medium intensity
RUNWAY 18  RUNWAY 36
Latitude: 39-25.095878N39-24.420897N
Longitude: 088-50.853115W088-50.847975W
Elevation: 618.4 ft.618.5 ft.
Gradient: 0.6%0.6%
Traffic pattern: leftleft
Runway heading: 182 magnetic, 180 true002 magnetic, 360 true
Markings: nonprecision, in good conditionnonprecision, in good condition
Visual slope indicator: 2-light PAPI on left (4.00 degrees glide path)
Runway end identifier lights: nono
Touchdown point: yes, no lightsyes, no lights

Runway 14/32

Dimensions: 2815 x 180 ft. / 858 x 55 m
Surface: turf, in good condition
RUNWAY 14  RUNWAY 32
Latitude: 39-24.714820N39-24.360782N
Longitude: 088-50.771478W088-50.385602W
Elevation: 617.1 ft.611.1 ft.
Traffic pattern: leftleft
Runway heading: 142 magnetic, 140 true322 magnetic, 320 true
Displaced threshold: no483 ft.
Markings: nonenone
Runway end identifier lights: nono
Touchdown point: yes, no lightsyes, no lights
Obstructions: none15 ft. road, 6 ft. from runway, 125 ft. left of centerline
APCH RATIO 20:1 TO DSPLCD THLD; 33 FT ANT 665 FT FM DSPLCD THLD 179 FT L OF CNTRLN.

Runway 4/22

Dimensions: 2368 x 160 ft. / 722 x 49 m
Surface: turf, in good condition
Runway edge markings: RYS 4 & 32 DSPLCD THLDS MARKED WITH WHITE GRAVEL 2 FT WIDE.
RUNWAY 4  RUNWAY 22
Latitude: 39-24.392068N39-24.690923N
Longitude: 088-50.845322W088-50.522103W
Elevation: 616.6 ft.612.2 ft.
Traffic pattern: leftleft
Runway heading: 042 magnetic, 040 true222 magnetic, 220 true
Displaced threshold: 250 ft.no
Markings: nonenone
Runway end identifier lights: nono
Touchdown point: yes, no lightsyes, no lights
Obstructions: 14 ft. road, 29 ft. from runway, 173 ft. right of centerline, 2:1 slope to clearnone

Airport Ownership and Management from official FAA records

Ownership: Publicly-owned
Owner: SHELBY CO ARPT & LNDG CMSN.
PO BOX 174
ASSUMPTION, IL 62510
Phone 217-774-5111
Manager: SCOTT JEFSON
RR 3 BOX 38
SHELBYVILLE, IL 62565
Phone 217-774-5111

Airport Operational Statistics

Aircraft based on the field: 22
Single engine airplanes: 21
Ultralights: 1
    
Aircraft operations: avg 44/day *
55% local general aviation
42% transient general aviation
3% military
* for 12-month period ending 31 July 2016

Additional Remarks

BOUNDARIES FOR RYS 4/22 & 14/32 ARE MARKED WITH WHITE PAINTED TIRES SPACED AT 400 FT INTERVALS.
RY 4 RELOCATED THLD NE OF TWYS. NEW RY LENGTHS PENDING RY 4/22.
WHEN ARPT UNATNDD, PHONE NR FOR ASSISTANCE POSTED ON FBO DOORS.

Instrument Procedures

NOTE: All procedures below are presented as PDF files. If you need a reader for these files, you should download the free Adobe Reader.

NOT FOR NAVIGATION. Please procure official charts for flight.
FAA instrument procedures published for use from 24 May 2018 at 0901Z to 21 June 2018 at 0900Z.

 
IAPs - Instrument Approach Procedures
RNAV (GPS) RWY 36   download (212KB)
NDB-A   download (155KB)
NOTE: Special Take-Off Minimums/Departure Procedures apply   download (201KB)

Other nearby airports with instrument procedures:

KTAZ - Taylorville Municipal Airport (24 nm W)
1H2 - Effingham County Memorial Airport (25 nm SE)
KDEC - Decatur Airport (25 nm N)
KMTO - Coles County Memorial Airport (27 nm E)
KVLA - Vandalia Municipal Airport (29 nm SW)
 
Loc | Ops | Rwys | IFR | FBO | Links
Com | Nav | Svcs | Stats | Notes

AirNav Hotels Sweepstakes
 
Area around 2H0 (Shelby County Airport)
 
Road maps at: MapQuest Bing Google
 
Aerial photo
WARNING: Photo may not be current or correct
Aerial photo of 2H0 (Shelby County Airport)
Do you have a better or more recent aerial photo of Shelby County Airport that you would like to share? If so, please send us your photo.

 
Sectional chart

 
Airport distance calculator
Flying to Shelby County Airport? Find the distance to fly.

From to 2H0

Sunrise and sunset
Times for 27-May-2018
 Local
(UTC-5)
 Zulu
(UTC)
Morning civil twilight05:0210:02
Sunrise05:3410:34
Sunset20:1101:11
Evening civil twilight20:4301:43

Current date and time
Zulu (UTC)  27-May-2018 18:43:45
Local (UTC-5)  27-May-2018 13:43:45
 
METAR
KTAZ 
24nm W 
271815Z AUTO 19006KT 10SM CLR 32/21 A2988 RMK AO2 T03230214
K1H2 
25nm SE 
271815Z AUTO 00000KT 10SM SCT050 33/19 A2991 RMK AO2 T03280191
KDEC 
25nm N 
271754Z VRB04KT 10SM FEW050 33/21 A2988 RMK AO2 SLP112 T03280206 10333 20228 58004
KMTO 
27nm E 
271753Z AUTO 10SM CLR 32/22 A2989 RMK AO2 SLP113 T03220222 10322 20233 58004
K3LF 
41nm W 
271815Z AUTO 25006KT 10SM CLR 32/22 A2990 RMK AO2 T03180219
KCMI 
46nm NE 
271753Z 19004KT 10SM CLR 33/20 A2989 RMK AO2 SLP115 T03280200 10328 20228 58005 $
KSLO 
46nm S 
271815Z AUTO 22004KT 10SM SCT048 BKN060 BKN075 33/20 A2990 RMK AO2 T03330203
KSPI 
47nm NW 
271752Z 26006KT 10SM FEW045 34/23 A2988 RMK AO2 SLP111 T03390228 10339 20239 58003
TAF
KDEC 
25nm N 
271736Z 2718/2818 18007KT P6SM SCT050 SCT250 TEMPO 2719/2722 BKN050 FM280100 VRB03KT P6SM SCT250 FM281600 VRB05KT P6SM SCT045 SCT250
NOTAMs
Click for the latest NOTAMs
NOTAMs are issued by the DoD/FAA and will open in a separate window not controlled by AirNav.

 

 
 

FBO, Fuel Providers, and Aircraft Ground Support

  
 Business Name 
 
 Contact 
 
 Services / Description 
 
Fuel Prices
 
Comments
  
Shelby County 217-774-5111
no information available

If you are affiliated with Shelby County and would like to show here your services, contact info, web link, logo, and more, click here
100LL Jet A
SS $4.55 $3.15 
 Updated 15-May-2018
 
   4 read write
SS=Self service
Update Fuel Prices
 

Would you like to see your business listed on this page?

 If your business provides an interesting product or service to pilots, flight crews, aircraft, or users of the Shelby County Airport, you should consider listing it here.  To start the listing process, click on the button below
 
Add a business
 

Other Pages about Shelby County Airport

Update a link
 
Copyright © AirNav, LLC. All rights reserved. Privacy Policy  Contact